This demonstration page uses our WeatherBlox Daily Observations layout. Learn more.

Left ArrowRight Arrow

Hourly Observations for December 13, 2021

Temp ( °F °C ) Dew Point ( °F °C ) Humidity (%) Winds ( mph kmh ) Pressure ( in mb ) Visibility ( mi km ) Precip ( " mm )
12:53 am 00:53 Cloudy 30 -1.1 23 -5 75 75 NW 7 11 29.83 1010 10 16 0.00 0.00
1:53 am 01:53 Cloudy 30 -1.1 23 -5 75 75 Calm 29.85 1011 10 16 0.00 0.00
2:53 am 02:53 Cloudy 29 -1.7 24 -4.4 82 82 ESE 5 7 29.87 1012 10 16 0.00 0.00
3:53 am 03:53 Cloudy 31 -0.6 24 -4.4 76 76 E 9 15 29.87 1012 10 16 0.00 0.00
4:53 am 04:53 Cloudy 32 0 23 -5 69 69 ENE 12 19 29.87 1011 10 16 0.00 0.00
5:53 am 05:53 Cloudy 31 -0.6 23 -5 72 72 E 9 15 29.87 1012 10 16 0.00 0.00
6:53 am 06:53 Cloudy 28 -2.2 23 -5 81 81 E 10 17 29.88 1012 10 16 0.00 0.00
7:53 am 07:53 Cloudy 28 -2.2 24 -4.4 85 85 E 5 7 29.88 1012 10 16 0.00 0.00
8:53 am 08:53 Mostly Sunny 28 -2.2 24 -4.4 85 85 E 5 7 29.89 1012 10 16 0.00 0.00
9:53 am 09:53 Mostly Sunny 30 -1.1 24 -4.4 79 79 NW 5 7 29.89 1012 10 16 0.00 0.00
10:53 am 10:53 Mostly Cloudy 36 2.2 27 -2.8 70 70 E 5 7 29.85 1011 10 16 0.00 0.00
11:53 am 11:53 Cloudy 43 6.1 29 -1.7 58 58 S 7 11 29.80 1009 10 16 0.00 0.00
12:53 pm 12:53 Cloudy 36 2.2 29 -1.7 76 76 W 10 17 29.82 1010 10 16 0.00 0.00
1:53 pm 13:53 Mostly Cloudy 39 3.9 30 -1.1 70 70 Calm 29.80 1009 10 16 0.00 0.00
2:53 pm 14:53 Cloudy 39 3.9 31 -0.6 73 73 ENE 5 7 29.79 1009 10 16 0.00 0.00
3:53 pm 15:53 Mostly Sunny 38 3.3 29 -1.7 70 70 E 9 15 29.76 1008 10 16 0.00 0.00
4:53 pm 16:53 Partly Cloudy 35 1.7 30 -1.1 82 82 E 14 22 29.77 1008 10 16 0.00 0.00
5:53 pm 17:53 Cloudy 34 1.1 30 -1.1 85 85 ENE 15 24 29.74 1007 10 16 0.00 0.00
6:53 pm 18:53 Clear 34 1.1 30 -1.1 85 85 ENE 9 15 29.74 1007 10 16 0.00 0.00
7:53 pm 19:53 Clear 33 0.6 29 -1.7 85 85 ENE 8 13 29.74 1007 10 16 0.00 0.00
8:53 pm 20:53 Cloudy 32 0 29 -1.7 88 88 ENE 12 19 29.71 1006 10 16 0.00 0.00
9:53 pm 21:53 Cloudy 32 0 29 -1.7 88 88 E 7 11 29.70 1006 10 16 0.00 0.00
10:53 pm 22:53 Mostly Clear 32 0 29 -1.7 88 88 NE 3 6 29.69 1005 10 16 0.00 0.00
11:53 pm 23:53 Clear 30 -1.1 28 -2.2 92 92 E 7 11 29.65 1004 10 16 0.00 0.00

Powered by AerisWeather